Miscellaneous Local Product
Issued by NWS Hastings, NE

Home | Current Version | Previous Version | Text Only | Print | Product List | Glossary Off
Versions: 1 2 3 4 5 6 7 8 9 10 11 12 13 14 15 16 17 18 19 20 21 22 23 24 25 26 27 28 29 30 31 32 33 34 35 36 37 38 39 40 41 42 43 44 45 46 47 48 49 50

553
AXUS43 KGID 291502
MISGRI

GID CWA HOURLY WEATHER ROUNDUP
NATIONAL WEATHER SERVICE HASTINGS NE
1000 AM CDT FRI JUL 29 2016

NOTE: "FAIR" INDICATES FEW OR NO CLOUDS BELOW 12,000 FEET WITH NO
SIGNIFICANT WEATHER AND/OR OBSTRUCTIONS TO VISIBILITY.

...SOUTH CENTRAL NEBRASKA...

CITY           SKY/WX    TMP DP  RH WIND       PRES   REMARKS
GRAND ISLAND   MOSUNNY   70  64  81 NE6       30.11S
HASTINGS       MOSUNNY   73  63  70 CALM      30.11S
ORD            CLOUDY    67  64  90 NW3       30.11R
YORK           CLOUDY    72  64  78 CALM      30.09F
AURORA         CLOUDY    71  67  88 CALM      30.10F
LEXINGTON      MOSUNNY   69  64  84 E3        30.13S
HOLDREGE       MOSUNNY   69  64  84 CALM      30.12F
HEBRON         MOSUNNY   71  64  78 NE3       30.08S

...NEBRASKA PANHANDLE...

CITY           SKY/WX    TMP DP  RH WIND       PRES   REMARKS
CHADRON        SUNNY     67  59  75 NE6       30.12F
ALLIANCE       SUNNY     67  60  78 CALM      30.15S
SCOTTSBLUFF    SUNNY     69  60  73 E3        30.15F
SIDNEY         MOSUNNY   71  59  65 CALM      30.19R

...WESTERN AND NORTH CENTRAL NEBRASKA...

CITY           SKY/WX    TMP DP  RH WIND       PRES   REMARKS
VALENTINE      CLOUDY    65  61  87 E3        30.13
AINSWORTH      CLOUDY    65  63  93 E3        30.14R
ONEILL         CLOUDY    68  62  81 E6        30.13R
BROKEN BOW     PTSUNNY   66  63  90 E3        30.13S
IMPERIAL       SUNNY     69  63  81 CALM      30.15S
NORTH PLATTE   CLOUDY    66  63  90 CALM      30.14S
MCCOOK         SUNNY     70  63  78 E7        30.14R

...EASTERN NEBRASKA...

CITY           SKY/WX    TMP DP  RH WIND       PRES   REMARKS
NORFOLK        CLOUDY    69  62  78 E3        30.10R
SO SIOUX CITY  MOSUNNY   74  61  63 N7        30.08R
TEKAMAH        SUNNY     73  61  65 VRB3      30.08S
COLUMBUS       CLOUDY    66  57  72 E5        30.11R
ALBION         CLOUDY    68  62  80 NE7       30.11R
OMAHA EPPLEY   CLOUDY    72  60  66 N5        30.07F
OFFUTT AFB     CLOUDY    69  62  78 NE3       30.06F
MILLARD        CLOUDY    70  62  76 CALM      30.07F
LINCOLN        LGT RAIN  71  66  84 NE8       30.09S
NEBRASKA CITY  CLOUDY    71  67  89 N6        30.07S
BEATRICE       CLOUDY    74  63  69 E7        30.07S
FALLS CITY     PTSUNNY   73  67  81 N3        30.04S

...NORTHERN KANSAS...

CITY           SKY/WX    TMP DP  RH WIND       PRES   REMARKS
GOODLAND       CLOUDY    67  62  84 CALM      30.17R
HILL CITY      MOSUNNY   72  65  78 CALM      30.11R
NORTON         SUNNY     73  61  64 NE5       30.10F
SMITH CENTER   SUNNY     73  64  73 NE5       30.09F
BELOIT         SUNNY     73  66  78 NE6       30.06S
HAYS           CLOUDY    73  63  68 SE5       30.10R
RUSSELL        MOSUNNY   73  68  84 CALM      30.07R
CONCORDIA      MOSUNNY   72  67  84 E6        30.07S
SALINA         SUNNY     76  68  76 S3        30.05S
TOPEKA         SUNNY     75  66  73 NE6       30.03S



USA.gov is the U.S. government's official web portal to all federal, state and local government web resources and services.